DL9GJ-4 Weather Reports


time (UTC)temp
C
wind
direction
speed
KPH
gust
KPH
rain 1hr
cm
rain 24hr
cm
rain mn
cm
humidity
%
barometer
mb
20260507140838 14 230 4.8 4.8 0.00 0.08 0.00 25 1012.0
20260507132615 13 198 6.4 6.4 0.00 0.08 0.00 26 1012.0
20260507132014 13 206 4.8 4.8 0.00 0.08 0.00 26 1012.0
20260507131410 13 298 4.8 4.8 0.00 0.08 0.00 28 1012.0
20260507125602 14 222 4.8 6.4 0.00 0.08 0.00 27 1012.0
20260507123757 13 206 3.2 4.8 0.00 0.08 0.00 30 1012.0
20260507123157 13 144 3.2 4.8 0.00 0.08 0.00 33 1012.0
20260507115555 12 118 0.0 4.8 0.00 0.08 0.00 41 1012.0
20260507112552 12 159 4.8 4.8 0.00 0.08 0.00 42 1012.0
20260507111954 11 228 3.2 4.8 0.00 0.08 0.00 43 1012.0
20260507111351 11 192 4.8 4.8 0.00 0.08 0.00 42 1012.0
20260507110748 11 222 4.8 4.8 0.00 0.08 0.00 43 1013.0
20260507105547 11 216 0.0 3.2 0.00 0.08 0.00 54 1013.0
20260507104347 10 140 4.8 4.8 0.00 0.08 0.00 47 1013.0
20260507103747 10 188 4.8 4.8 0.00 0.08 0.00 47 1013.0
20260507100746 10 194 4.8 4.8 0.00 0.08 0.00 60 1013.0
20260507095547 10 279 4.8 4.8 0.00 0.08 0.00 71 1013.0
20260507094946 10 223 4.8 4.8 0.00 0.08 0.00 71 1013.0
20260507094346 10 275 4.8 6.4 0.00 0.08 0.00 73 1013.0
20260507093748 10 217 4.8 4.8 0.00 0.08 0.00 76 1013.0
20260507093146 10 249 4.8 4.8 0.00 0.08 0.00 76 1013.0
20260507092543 10 207 3.2 3.2 0.00 0.08 0.00 76 1013.0
20260507091943 10 216 3.2 3.2 0.00 0.08 0.00 77 1012.0
20260507091341 9 226 0.0 4.8 0.00 0.08 0.00 76 1012.0
20260507090140 8 224 0.0 3.2 0.08 0.08 0.00 77 1012.0
20260507090135 8 224 0.0 3.2 0.08 0.08 0.00 77 1012.0
20260507085542 8 194 4.8 4.8 0.08 0.08 0.00 76 1012.0
20260507085534 8 194 4.8 4.8 0.08 0.08 0.00 76 1012.0
20260507084932 8 220 4.8 4.8 0.08 0.08 0.00 76 1012.0
20260507084329 8 235 3.2 3.2 0.08 0.08 0.00 76 1012.0
20260507083727 8 235 0.0 4.8 0.08 0.08 0.00 75 1012.0
20260507083126 8 234 4.8 4.8 0.08 0.08 0.00 75 1012.0
20260507082536 8 234 3.2 3.2 0.08 0.08 0.00 75 1012.0
20260507082527 8 234 3.2 3.2 0.08 0.08 0.00 75 1012.0
20260507081651 8 235 3.2 4.8 0.08 0.08 0.00 75 1012.0
20260507081325 8 235 3.2 4.8 0.08 0.08 0.00 75 1012.0
20260507080724 8 235 3.2 3.2 0.08 0.08 0.00 75 1012.0
20260507080125 8 184 4.8 4.8 0.08 0.08 0.00 76 1012.0
20260507075524 8 185 0.0 0.0 0.08 0.08 0.00 75 1012.0
20260507074324 8 196 6.4 6.4 0.08 0.08 0.00 76 1012.0
20260507073724 7 186 6.4 6.4 0.08 0.08 0.00 76 1012.0
20260507073124 7 210 4.8 4.8 0.08 0.08 0.00 75 1012.0
20260507072523 7 162 4.8 6.4 0.08 0.08 0.00 74 1012.0
20260507070124 7 203 0.0 4.8 0.00 0.08 0.00 74 1012.0
20260507064324 7 187 4.8 4.8 0.00 0.08 0.00 73 1012.0
20260507063721 7 158 4.8 6.4 0.00 0.08 0.00 72 1012.0
20260507063117 7 193 4.8 4.8 0.00 0.08 0.00 72 1012.0
20260507062516 7 208 4.8 8.0 0.00 0.08 0.00 72 1012.0
20260507061314 7 247 9.7 9.7 0.00 0.08 0.00 71 1012.0
20260507060715 7 166 4.8 4.8 0.00 0.08 0.00 70 1012.0
20260507060110 7 218 9.7 9.7 0.00 0.08 0.00 69 1012.0
20260507055507 7 194 6.4 6.4 0.00 0.08 0.00 68 1012.0
20260507054905 7 195 8.0 8.0 0.00 0.08 0.00 67 1011.0
20260507054304 7 176 4.8 4.8 0.00 0.08 0.00 66 1011.0
20260507053657 7 221 4.8 8.0 0.00 0.08 0.00 65 1011.0
20260507051851 7 179 6.4 6.4 0.00 0.08 0.00 62 1011.0
20260507051258 7 237 4.8 4.8 0.00 0.08 0.00 61 1011.0
20260507051249 7 237 4.8 4.8 0.00 0.08 0.00 61 1011.0
20260507044841 7 213 4.8 4.8 0.00 0.08 0.00 59 1011.0
20260507044239 7 197 6.4 6.4 0.00 0.08 0.00 59 1011.0
20260507043635 7 213 3.2 8.0 0.00 0.08 0.00 58 1011.0
20260507043035 7 181 6.4 8.0 0.00 0.08 0.00 58 1011.0
20260507042435 7 194 4.8 6.4 0.00 0.08 0.00 57 1011.0
20260507041835 7 174 6.4 6.4 0.00 0.08 0.00 57 1010.0
20260507041237 7 176 4.8 4.8 0.00 0.08 0.00 57 1010.0
20260507040637 7 215 3.2 4.8 0.00 0.08 0.00 58 1010.0
20260507040035 7 196 4.8 8.0 0.00 0.08 0.00 59 1010.0
20260507035428 7 191 6.4 6.4 0.00 0.08 0.00 60 1010.0
20260507034225 7 165 8.0 8.0 0.00 0.08 0.00 65 1010.0
20260507033623 7 205 8.0 8.0 0.00 0.08 0.00 67 1010.0
20260507033020 7 220 4.8 8.0 0.00 0.08 0.00 68 1010.0
20260507032418 7 143 8.0 8.0 0.00 0.08 0.00 67 1010.0
20260507031919 7 203 6.4 6.4 0.00 0.08 0.00 63 1010.0
20260507031816 7 203 6.4 6.4 0.00 0.08 0.00 63 1010.0
20260507031212 6 200 0.0 0.0 0.00 0.08 0.00 59 1010.0
20260507024759 7 200 0.0 0.0 0.00 0.08 0.00 57 1010.0
20260507023555 7 222 3.2 4.8 0.00 0.08 0.00 55 1010.0
20260507022954 7 208 3.2 3.2 0.00 0.08 0.00 54 1010.0
20260507022351 7 208 0.0 3.2 0.00 0.08 0.00 53 1010.0
20260507021746 7 206 0.0 3.2 0.00 0.08 0.00 52 1010.0
20260507021143 7 257 0.0 3.2 0.00 0.08 0.00 50 1010.0
20260507020540 7 195 0.0 0.0 0.00 0.08 0.00 49 1010.0
20260507015937 7 195 0.0 0.0 0.00 0.08 0.00 49 1010.0
20260507015337 7 194 0.0 0.0 0.00 0.08 0.00 49 1009.0
20260507014143 7 195 0.0 0.0 0.00 0.08 0.00 48 1009.0
20260507014134 7 195 0.0 0.0 0.00 0.08 0.00 48 1009.0
20260507012331 8 195 0.0 3.2 0.00 0.08 0.00 47 1009.0
20260507011731 8 193 3.2 3.2 0.00 0.08 0.00 47 1009.0
20260507011132 8 194 3.2 6.4 0.00 0.08 0.00 47 1009.0
20260507010531 8 185 4.8 6.4 0.00 0.08 0.00 47 1009.0
20260507005331 8 188 4.8 6.4 0.00 0.08 0.00 48 1009.0
20260507004733 8 200 4.8 4.8 0.00 0.08 0.00 48 1009.0
20260507004131 8 189 6.4 6.4 0.00 0.08 0.00 48 1009.0
20260507001737 8 201 4.8 4.8 0.00 0.08 0.00 47 1009.0
20260507001731 8 201 4.8 4.8 0.00 0.08 0.00 47 1009.0
20260507001131 8 188 4.8 4.8 0.00 0.08 0.00 48 1009.0
20260507000530 8 184 6.4 6.4 0.00 0.08 0.00 49 1009.0
20260506235928 8 194 6.4 6.4 0.00 0.08 0.00 50 1009.0
20260506235327 8 192 4.8 4.8 0.00 0.08 0.00 51 1009.0
20260506234725 8 188 4.8 6.4 0.00 0.08 0.00 52 1009.0
20260506234121 8 208 4.8 4.8 0.00 0.08 0.00 53 1009.0
20260506233515 8 189 4.8 4.8 0.00 0.08 0.00 53 1009.0
20260506232913 8 191 4.8 6.4 0.00 0.08 0.00 55 1009.0
20260506231708 7 157 4.8 4.8 0.00 0.08 0.00 57 1009.0
20260506231104 7 185 4.8 4.8 0.00 0.08 0.00 55 1009.0
20260506230500 7 193 0.0 0.0 0.00 0.08 0.00 55 1009.0
20260506225855 7 192 3.2 4.8 0.00 0.08 0.00 54 1009.0
20260506225253 7 191 4.8 4.8 0.00 0.08 0.00 54 1009.0
20260506222843 8 193 4.8 6.4 0.00 0.08 0.00 52 1009.0
20260506222242 8 183 3.2 3.2 0.00 0.08 0.00 50 1009.0
20260506221637 8 183 3.2 4.8 0.00 0.08 0.00 50 1009.0
20260506215823 8 193 0.0 3.2 0.00 0.28 0.00 50 1009.0
20260506214614 8 188 8.0 8.0 0.00 0.28 0.00 50 1009.0
20260506214024 8 196 4.8 8.0 0.00 0.28 0.00 51 1009.0
20260506214012 8 196 4.8 8.0 0.00 0.28 0.00 51 1009.0
20260506212807 8 177 4.8 4.8 0.00 0.28 0.00 53 1009.0
20260506212206 8 171 6.4 6.4 0.00 0.28 0.00 53 1009.0
20260506211604 8 222 4.8 8.0 0.00 0.28 0.00 53 1009.0
20260506210958 8 195 8.0 8.0 0.00 0.28 0.00 53 1009.0
20260506210356 8 193 3.2 8.0 0.00 0.28 0.00 53 1009.0
20260506205752 8 201 8.0 8.0 0.00 0.28 0.00 52 1009.0
20260506203952 8 197 6.4 8.0 0.00 0.28 0.00 53 1009.0
20260506202149 8 184 6.4 8.0 0.00 0.28 0.00 56 1009.0
20260506200950 8 149 6.4 6.4 0.00 0.28 0.00 56 1009.0
20260506200350 8 216 6.4 6.4 0.00 0.28 0.00 56 1009.0
20260506195750 8 204 4.8 4.8 0.00 0.28 0.00 55 1009.0
20260506195150 8 221 4.8 4.8 0.00 0.28 0.00 54 1009.0
20260506194549 8 187 6.4 6.4 0.00 0.28 0.00 54 1009.0
20260506193948 8 228 4.8 8.0 0.00 0.28 0.00 53 1009.0
20260506193345 8 164 6.4 6.4 0.00 0.28 0.00 53 1009.0
20260506192744 8 193 6.4 9.7 0.00 0.28 0.00 53 1009.0
20260506192140 8 221 8.0 8.0 0.00 0.28 0.00 54 1008.0
20260506191539 8 191 8.0 8.0 0.00 0.28 0.00 53 1008.0
20260506190332 8 222 4.8 8.0 0.00 0.28 0.00 54 1008.0
20260506185728 8 174 6.4 8.0 0.00 0.28 0.00 54 1008.0
20260506185125 8 231 4.8 6.4 0.00 0.28 0.00 54 1008.0
20260506184522 8 198 4.8 4.8 0.00 0.28 0.00 54 1008.0
20260506183919 8 189 6.4 6.4 0.00 0.28 0.00 54 1008.0
20260506183318 8 195 6.4 8.0 0.00 0.28 0.00 54 1008.0
20260506182714 8 171 6.4 6.4 0.00 0.28 0.00 54 1008.0
20260506182113 8 220 6.4 6.4 0.00 0.28 0.00 53 1008.0
20260506175108 8 223 4.8 8.0 0.00 0.28 0.00 50 1007.0
20260506173259 8 179 4.8 4.8 0.00 0.28 0.00 50 1007.0
20260506172655 8 192 8.0 9.7 0.00 0.28 0.00 49 1007.0
20260506170854 9 244 8.0 8.0 0.00 0.28 0.00 50 1007.0
20260506170254 9 238 4.8 11.3 0.00 0.28 0.00 50 1007.0
20260506165653 9 225 4.8 4.8 0.00 0.28 0.00 49 1007.0
20260506163854 10 263 0.0 3.2 0.00 0.28 0.00 54 1007.0
20260506162654 9 224 4.8 6.4 0.00 0.28 0.00 55 1007.0
20260506160850 8 197 6.4 8.0 0.00 0.28 0.00 53 1007.0
20260506160250 8 243 8.0 8.0 0.00 0.28 0.00 52 1007.0
20260506155646 8 192 6.4 6.4 0.00 0.28 0.00 51 1007.0
20260506152639 8 157 8.0 8.0 0.00 0.28 0.00 53 1007.0
20260506145620 8 215 9.7 9.7 0.00 0.28 0.00 53 1007.0
20260506145051 8 198 9.7 11.3 0.00 0.28 0.00 50 1006.0
20260506145017 8 198 9.7 11.3 0.00 0.28 0.00 50 1006.0
20260506143816 9 212 8.0 16.1 0.00 0.28 0.00 47 1005.0
20260506143212 10 188 12.9 14.5 0.00 0.28 0.00 43 1005.0
20260506142021 14 213 4.8 4.8 0.00 0.28 0.00 35 1004.0
20260506141403 14 207 0.0 8.0 0.00 0.28 0.00 33 1004.0